Date String (YYYY-MM-DD hh:mm:ss) UTC,Instrument flags,Ambient pressure (hPa),Sample flow (lpm),Bypass flow (lpm),Sample temperature (°C),Ambient temperature (°C),ASC tube jacket temperature (°C),LED temperature (°C),Box temperature (°C),Sample RH (%),Span deviation,Mass concentration (μg/m³),Mass concentration (μg/m³),Mass concentration (μg/m³)
DateTimeUTC,F1_M11,P_M11,Q1_M11,Q2_M11,T1_M11,T2_M11,T3_M11,T4_M11,T5_M11,U1_M11,ZSPAN_M11,X0_M11,X2_M11,X1_M11
2022-12-10 22:00:00,,0823.8,5.00,0.00,27.0,25.8,00.0,35.7,28.9,06.1,0000.0,0009.58,0004.00,0003.51
2022-12-10 22:01:00,,0823.8,5.00,0.00,27.0,25.9,00.0,35.7,28.9,06.0,0000.0,0009.56,0004.03,0003.51
2022-12-10 22:02:00,,0823.9,5.01,0.00,27.1,25.9,00.0,35.8,28.9,06.0,0000.0,0009.93,0004.01,0003.51
2022-12-10 22:03:00,,0824.0,5.01,0.00,27.1,25.9,00.0,35.8,28.9,06.0,0000.0,0010.47,0004.05,0003.51
2022-12-10 22:04:00,,0823.9,5.00,0.00,27.1,25.9,00.0,35.8,28.9,05.9,0000.0,0010.70,0004.06,0003.52
2022-12-10 22:05:00,,0823.9,4.99,0.00,27.1,25.9,00.0,35.8,28.9,05.9,0000.0,0011.03,0004.12,0003.53
2022-12-10 22:06:00,,0823.9,5.00,0.00,27.1,25.9,00.0,35.8,28.9,05.9,0000.0,0011.47,0004.16,0003.54
2022-12-10 22:07:00,,0823.9,5.00,0.00,27.1,25.9,00.0,35.8,28.9,05.9,0000.0,0011.93,0004.17,0003.54
2022-12-10 22:08:00,,0823.9,4.99,0.00,27.1,25.9,00.0,35.8,28.9,05.9,0000.0,0011.89,0004.17,0003.55
2022-12-10 22:09:00,,0823.9,5.01,0.00,27.1,25.9,00.0,35.9,29.0,05.8,0000.0,0011.50,0004.18,0003.56
2022-12-10 22:10:00,,0823.8,5.01,0.00,27.1,25.9,00.0,35.9,29.0,05.9,0000.0,0010.65,0004.19,0003.56
2022-12-10 22:11:00,,0823.8,5.00,0.00,27.1,25.9,00.0,35.9,29.0,05.8,0000.0,0010.88,0004.18,0003.56
2022-12-10 22:12:00,,0823.9,5.00,0.00,27.2,25.9,00.0,35.9,29.0,05.8,0000.0,0010.95,0004.14,0003.56
2022-12-10 22:13:00,,0823.9,5.00,0.00,27.2,25.9,00.0,35.9,29.0,05.9,0000.0,0010.62,0004.16,0003.58
2022-12-10 22:14:00,,0824.0,5.00,0.00,27.2,25.9,00.0,35.9,29.0,05.8,0000.0,0010.25,0004.17,0003.58
2022-12-10 22:15:00,,0824.0,5.00,0.00,27.2,26.0,00.0,35.9,29.1,05.8,0000.0,0010.24,0004.19,0003.59
2022-12-10 22:16:00,,0824.0,4.99,0.00,27.2,26.0,00.0,35.9,29.0,05.8,0000.0,0010.34,0004.14,0003.59
2022-12-10 22:17:00,,0824.0,5.00,0.00,27.2,26.0,00.0,35.9,29.1,05.8,0000.0,0010.05,0004.10,0003.57
2022-12-10 22:18:00,,0823.9,4.99,0.00,27.2,26.0,00.0,36.0,29.1,05.7,0000.0,0010.25,0004.08,0003.56
2022-12-10 22:19:00,,0823.9,4.99,0.00,27.2,26.0,00.0,36.0,29.1,05.7,0000.0,0010.60,0004.05,0003.54
2022-12-10 22:20:00,,0823.9,5.02,0.00,27.2,26.0,00.0,36.0,29.2,05.6,0000.0,0010.87,0004.01,0003.52
2022-12-10 22:21:00,,0823.9,5.00,0.00,27.3,26.0,00.0,36.0,29.1,05.6,0000.0,0010.85,0003.98,0003.49
2022-12-10 22:22:00,,0824.0,5.00,0.00,27.3,26.0,00.0,36.0,29.1,05.7,0000.0,0010.51,0003.97,0003.48
2022-12-10 22:23:00,,0824.0,5.00,0.00,27.3,26.0,00.0,36.0,29.1,05.9,0000.0,0010.43,0004.02,0003.49
2022-12-10 22:24:00,,0824.0,4.99,0.00,27.3,26.0,00.0,36.0,29.1,05.9,0000.0,0010.59,0004.07,0003.53
2022-12-10 22:25:00,,0824.0,5.00,0.00,27.3,26.0,00.0,36.0,29.1,06.0,0000.0,0010.73,0004.09,0003.57
2022-12-10 22:26:00,,0824.0,4.99,0.00,27.3,26.0,00.0,36.0,29.2,06.0,0000.0,0011.57,0004.06,0003.59
2022-12-10 22:27:00,,0824.0,5.00,0.00,27.3,26.0,00.0,36.0,29.2,06.0,0000.0,0011.52,0004.08,0003.61
2022-12-10 22:28:00,,0824.0,5.01,0.00,27.3,26.0,00.0,36.1,29.2,05.9,0000.0,0011.06,0004.11,0003.63
2022-12-10 22:29:00,,0824.0,5.00,0.00,27.3,26.0,00.0,36.1,29.2,05.9,0000.0,0010.40,0004.15,0003.66
2022-12-10 22:30:00,,0824.0,4.99,0.00,27.3,26.0,00.0,36.1,29.2,06.0,0000.0,0010.36,0004.21,0003.69
2022-12-10 22:31:00,,0824.0,4.99,0.00,27.3,26.0,00.0,36.1,29.2,06.0,0000.0,0011.23,0004.27,0003.74
2022-12-10 22:32:00,,0824.0,4.99,0.00,27.3,26.0,00.0,36.1,29.2,06.0,0000.0,0011.51,0004.34,0003.78
2022-12-10 22:33:00,,0824.0,5.00,0.00,27.3,26.1,00.0,36.1,29.2,06.0,0000.0,0012.15,0004.39,0003.84
2022-12-10 22:34:00,,0824.0,5.01,0.00,27.4,26.1,00.0,36.1,29.2,06.0,0000.0,0012.70,0004.39,0003.86
2022-12-10 22:35:00,,0824.0,5.00,0.00,27.4,26.1,00.0,36.1,29.2,06.0,0000.0,0012.87,0004.38,0003.86
2022-12-10 22:36:00,,0824.0,5.00,0.00,27.4,26.1,00.0,36.1,29.2,06.0,0000.0,0013.68,0004.42,0003.85
2022-12-10 22:37:00,,0824.0,5.00,0.00,27.4,26.1,00.0,36.1,29.2,06.0,0000.0,0012.63,0004.45,0003.86
2022-12-10 22:38:00,,0823.9,5.00,0.00,27.4,26.1,00.0,36.1,29.3,06.0,0000.0,0012.41,0004.49,0003.89
2022-12-10 22:39:00,,0824.0,5.00,0.00,27.4,26.1,00.0,36.1,29.3,06.0,0000.0,0012.43,0004.53,0003.91
2022-12-10 22:40:00,,0824.0,5.00,0.00,27.4,26.1,00.0,36.1,29.3,06.0,0000.0,0012.95,0004.53,0003.92
2022-12-10 22:41:00,,0824.0,5.00,0.00,27.4,26.1,00.0,36.1,29.3,05.9,0000.0,0012.76,0004.54,0003.94
2022-12-10 22:42:00,,0823.9,5.00,0.00,27.4,26.1,00.0,36.2,29.3,05.9,0000.0,0011.84,0004.55,0003.95
2022-12-10 22:43:00,,0824.0,5.00,0.00,27.4,26.1,00.0,36.2,29.3,05.9,0000.0,0012.12,0004.58,0003.96
2022-12-10 22:44:00,,0824.0,5.00,0.00,27.4,26.1,00.0,36.2,29.3,05.8,0000.0,0011.90,0004.61,0003.96
2022-12-10 22:45:00,,0824.0,5.00,0.00,27.5,26.2,00.0,36.2,29.3,05.9,0000.0,0011.25,0004.63,0003.95
2022-12-10 22:46:00,,0824.0,5.00,0.00,27.5,26.2,00.0,36.2,29.3,05.9,0000.0,0010.94,0004.61,0003.95
2022-12-10 22:47:00,,0824.0,5.00,0.00,27.5,26.2,00.0,36.2,29.3,05.8,0000.0,0009.78,0004.55,0003.95
2022-12-10 22:48:00,,0824.0,5.00,0.00,27.5,26.2,00.0,36.2,29.3,05.8,0000.0,0009.73,0004.53,0003.94
2022-12-10 22:49:00,,0824.0,5.00,0.00,27.5,26.2,00.0,36.2,29.3,05.8,0000.0,0009.60,0004.50,0003.92
2022-12-10 22:50:00,,0824.0,5.00,0.00,27.5,26.2,00.0,36.2,29.3,05.8,0000.0,0009.51,0004.49,0003.92
2022-12-10 22:51:00,,0824.0,5.00,0.00,27.5,26.2,00.0,36.2,29.4,05.8,0000.0,0009.13,0004.49,0003.91
2022-12-10 22:52:00,,0823.9,5.00,0.00,27.5,26.2,00.0,36.2,29.3,05.8,0000.0,0008.95,0004.46,0003.91
2022-12-10 22:53:00,,0823.9,5.00,0.00,27.5,26.2,00.0,36.3,29.4,05.8,0000.0,0008.86,0004.45,0003.90
2022-12-10 22:54:00,,0824.0,5.00,0.00,27.5,26.2,00.0,36.3,29.4,05.8,0000.0,0008.28,0004.42,0003.89
2022-12-10 22:55:00,,0824.0,5.00,0.00,27.5,26.2,00.0,36.3,29.4,05.8,0000.0,0008.10,0004.37,0003.88
2022-12-10 22:56:00,,0824.0,5.00,0.00,27.5,26.3,00.0,36.3,29.4,05.8,0000.0,0007.99,0004.35,0003.88
2022-12-10 22:57:00,,0824.0,5.00,0.00,27.6,26.3,00.0,36.3,29.4,05.7,0000.0,0008.08,0004.38,0003.88
2022-12-10 22:58:00,,0824.0,5.00,0.00,27.6,26.3,00.0,36.3,29.4,05.7,0000.0,0008.13,0004.38,0003.88
2022-12-10 22:59:00,,0823.9,5.00,0.00,27.6,26.3,00.0,36.3,29.4,05.7,0000.0,0008.22,0004.40,0003.87
